Dewpoint
74 75 74 75 76 76 76 76 76 75 75 75 75 75 75 75 74 74 75 74 74 74 75 76 76 76 75 76 74 75 77 76 76 77 76 76 76 75 74 74 73 73 73 72 71 70 69 68 68 68 68 67 66 65 65 65 66 64 65 65 64 65 65 64 62 62 64 64 61 60 62 62 62 65 65 64 66 68 67 65 66 65 64 64 64
74 74 75 75 75 75 75 75 76 76 75 75 75 75 75 75 75 76 74 75 75 74 76 75 76 75 75 76 76 75 77 78 76 76 77 76 76 75 75 74 74 74 73 73 72 70 71 69 68 68 68 68 67 66 65 63 64 63 64 64 64 64 66 65 63 62 63 65 64 63 62 64 63 66 66 64 64 65 66 67 67 67 66 65 64
72 75 74 75 75 75 75 75 76 76 75 75 73 73 74 75 76 75 74 73 75 75 75 75 76 77 76 76 77 77 77 77 77 76 76 77 76 75 74 74 73 73 72 73 73 72 71 70 68 68 68 67 67 66 66 66 65 65 65 65 65 64 67 67 65 64 63 63 66 64 63 64 64 65 66 66 67 66 66 67 64 64 65 65 64
71 74 74 74 75 75 75 75 74 73 73 73 73 73 72 74 75 75 75 73 74 76 75 76 76 77 76 77 77 77 77 77 77 76 77 76 76 76 76 75 74 73 73 73 73 72 71 70 69 67 67 68 68 67 66 66 66 66 66 67 67 66 67 68 67 65 65 64 65 64 64 65 64 65 65 66 65 66 66 66 65 65 63 64 65
69 72 73 72 73 75 75 74 74 74 73 72 72 72 72 71 73 74 74 73 72 75 76 76 76 77 76 76 77 77 77 77 77 76 76 76 76 75 75 76 75 75 74 74 73 73 72 71 70 68 68 68 68 67 67 67 66 66 66 67 67 66 66 67 68 67 66 65 64 66 66 66 65 66 65 64 65 66 66 66 65 67 68 64 62
68 70 71 71 73 74 75 75 74 73 72 71 71 71 71 72 71 73 73 73 73 72 75 75 76 77 77 77 77 77 78 77 77 77 75 76 76 75 75 75 75 75 74 74 73 73 72 72 71 70 68 68 68 67 68 68 68 67 67 67 67 67 67 67 68 68 67 65 66 64 67 65 65 66 67 66 65 65 67 67 68 68 68 66 63
70 70 70 70 72 73 74 74 74 72 73 72 71 71 70 70 70 71 72 73 72 71 71 75 75 76 77 77 76 77 77 77 77 77 76 76 76 76 74 74 74 74 74 73 72 72 72 72 72 71 70 69 69 68 68 69 68 68 68 68 67 68 67 67 67 66 66 66 66 65 64 65 66 65 66 69 69 67 66 65 66 67 68 68 67
69 69 70 71 73 73 74 75 74 74 73 74 74 72 71 72 72 72 72 73 71 71 70 72 74 75 76 76 76 77 77 77 77 78 77 76 75 76 74 74 74 74 74 74 72 72 72 72 70 71 70 70 70 69 68 69 69 69 68 68 68 68 67 66 66 65 65 65 63 63 64 63 64 65 69 71 69 68 67 65 65 65 67 69 69
69 69 71 72 73 74 75 75 75 75 74 75 74 74 73 73 73 73 73 72 72 71 71 70 73 75 75 76 76 76 75 76 77 77 76 76 76 75 75 74 74 74 74 72 72 72 71 71 71 70 72 70 67 67 66 67 69 69 69 69 68 68 68 67 66 65 64 64 64 64 64 63 63 64 66 67 65 64 66 68 67 66 66 64 67
70 70 70 72 73 75 75 76 76 76 75 74 75 74 73 73 72 73 73 72 73 74 73 72 71 73 75 76 76 76 75 76 73 67 69 75 75 75 75 75 74 74 74 73 71 71 71 70 70 68 67 68 66 65 64 64 65 68 69 70 69 68 68 67 66 65 65 64 63 63 62 62 61 64 64 66 67 68 67 68 67 66 66 65 65
70 70 71 73 74 75 76 76 76 76 76 75 75 75 74 74 74 74 74 74 74 75 74 73 72 72 74 74 75 75 75 75 67 65 65 67 73 75 75 75 75 74 73 74 73 71 71 71 70 70 69 67 69 64 64 63 64 64 66 67 67 69 68 67 66 66 65 64 64 63 62 63 62 64 66 65 66 66 66 67 66 66 65 63 60
70 72 72 74 74 75 75 76 76 76 76 75 75 76 75 75 75 75 74 74 75 74 74 74 74 72 72 73 74 75 75 69 64 64 64 64 67 75 75 74 74 74 73 73 73 72 71 71 71 71 70 69 69 70 67 64 63 63 63 65 65 65 66 68 67 66 66 65 64 63 63 63 63 65 65 65 66 66 67 67 67 66 64 63 63
71 73 73 74 75 75 76 76 76 76 76 76 75 76 76 75 75 74 74 75 75 75 75 74 74 74 73 74 74 74 74 67 63 62 63 63 64 69 73 74 73 73 73 73 73 73 73 72 71 72 71 68 69 70 70 69 63 62 62 64 65 64 63 64 66 69 66 66 65 64 64 63 63 67 66 66 67 67 67 66 66 66 65 65 64
72 73 74 74 75 75 76 76 76 76 76 76 76 76 76 75 74 73 74 75 75 75 75 75 75 75 74 74 75 74 75 66 62 61 61 62 63 66 73 73 73 73 73 73 72 73 73 73 73 72 72 71 70 70 71 70 69 68 68 68 68 67 64 63 63 65 68 65 66 65 65 65 65 70 69 68 68 66 66 65 66 66 67 65 67
71 73 74 74 74 75 75 75 75 75 76 76 76 75 75 75 75 73 73 74 75 75 75 75 75 75 74 73 74 74 74 63 60 59 60 60 61 63 73 72 73 74 73 73 73 73 73 73 73 73 72 72 71 70 71 71 70 69 68 67 67 67 67 66 65 65 66 64 64 65 66 67 69 69 69 69 68 68 69 69 69 68 68 67 65
70 73 73 73 74 74 74 75 74 75 75 75 75 75 75 75 75 75 74 73 74 74 75 75 74 74 75 74 73 74 73 61 59 59 58 59 60 69 73 73 72 73 73 74 73 74 73 73 74 73 73 73 68 63 67 72 71 70 69 68 67 67 66 65 63 63 65 65 65 63 62 63 65 74 74 67 69 69 68 67 67 67 64 62 60
71 73 73 73 72 73 73 74 74 74 74 74 75 74 75 75 75 75 74 73 73 73 74 74 75 74 74 75 74 74 74 66 58 57 57 58 60 71 73 73 73 73 73 73 72 72 72 73 74 74 73 72 66 61 63 66 71 69 69 69 67 66 65 67 64 61 62 61 62 61 59 60 60 59 60 62 70 67 65 65 65 62 63 62 61
72 73 73 72 72 73 74 74 74 74 74 74 74 74 74 75 75 75 74 73 72 72 73 74 75 75 73 74 73 74 74 66 55 56 56 56 62 72 72 72 73 73 73 73 72 72 72 69 72 73 73 73 61 60 61 67 71 70 70 68 68 67 66 65 67 68 61 62 61 60 61 61 61 60 61 61 62 65 67 62 60 60 60 61 58
71 72 72 72 72 73 74 74 74 74 74 73 73 74 74 74 74 75 74 74 73 73 73 73 74 75 74 73 69 72 73 65 55 56 56 56 63 72 72 72 72 72 73 72 72 71 72 70 68 69 70 70 59 59 59 64 70 69 70 68 67 67 66 66 65 67 67 67 68 67 67 64 68 68 67 62 64 67 66 63 61 61 59 57 55
73 73 72 72 73 73 73 74 75 73 74 74 74 74 75 73 73 73 74 73 73 72 72 73 74 74 73 73 72 73 73 73 65 55 55 55 58 72 72 71 71 71 72 71 70 71 72 72 70 63 62 61 58 57 57 59 69 70 69 68 67 66 65 64 65 65 68 67 67 67 67 66 65 66 68 66 64 67 67 65 64 62 60 57 55
74 74 73 72 72 73 73 74 74 73 73 74 74 73 73 73 73 73 73 73 74 73 73 73 73 73 73 73 72 71 71 72 71 54 54 54 56 62 73 72 71 71 71 71 70 69 71 71 72 63 59 57 56 55 55 57 62 69 68 68 68 67 65 65 68 66 66 67 67 66 65 65 65 63 62 67 65 65 63 63 62 61 58 56 53
74 74 74 72 71 72 73 74 75 74 74 74 75 75 74 75 75 74 74 74 75 74 75 74 73 72 73 73 73 73 70 66 74 56 55 54 55 57 70 73 71 71 71 71 70 70 70 71 72 64 58 56 55 54 54 56 58 69 70 61 60 60 68 66 66 66 65 64 64 64 63 63 61 60 58 60 61 61 61 58 56 58 58 55 55
73 73 74 73 73 73 74 74 74 73 73 74 74 75 75 75 75 75 75 75 75 74 74 74 73 72 72 72 71 72 74 74 63 65 55 54 54 56 61 68 65 72 71 71 71 70 70 72 71 61 57 55 54 53 53 55 57 65 59 58 56 59 64 64 64 64 63 62 62 62 62 61 61 59 58 59 60 62 56 58 58 58 60 58 57
73 73 73 72 72 71 71 72 73 74 74 74 75 75 75 76 75 75 75 74 74 73 72 73 73 72 71 70 70 71 73 72 66 61 61 53 54 54 57 60 62 71 72 71 72 71 72 73 69 57 55 53 53 53 53 54 61 57 56 55 57 61 65 64 64 65 63 61 60 61 61 61 59 59 58 60 58 62 61 59 60 57 59 57 58
72 72 72 72 73 72 72 72 72 73 73 74 74 75 75 75 74 75 75 74 73 72 72 72 72 72 71 71 71 71 71 72 73 67 58 55 54 54 55 58 60 61 71 72 72 71 66 62 60 54 55 53 53 53 53 54 56 56 54 55 60 66 66 64 64 65 63 61 61 61 62 61 60 60 62 63 63 61 62 60 58 57 57 58 58
72 72 72 72 72 72 72 72 73 74 74 74 75 75 75 74 73 73 73 72 72 72 72 71 71 72 72 71 71 72 73 72 73 75 61 57 56 54 55 56 58 59 64 70 66 64 61 59 55 55 55 56 59 61 60 60 56 56 55 58 67 65 65 64 65 64 63 61 61 60 60 60 60 62 63 63 61 60 60 58 56 55 55 55 55
74 74 73 72 73 72 72 71 71 72 74 74 73 73 73 72 73 72 72 72 72 72 72 72 71 70 71 71 71 72 73 72 72 74 69 65 63 61 59 61 57 58 63 69 66 68 62 60 60 58 58 57 59 59 60 58 59 60 62 64 65 64 65 65 63 64 64 61 61 60 60 60 61 62 62 61 61 60 60 57 55 54 54 54 54
74 75 73 73 72 73 72 71 72 71 71 72 71 71 71 71 72 72 72 72 72 72 72 71 71 71 70 70 71 71 72 72 72 74 70 67 65 65 64 64 64 65 66 69 71 70 65 59 58 62 61 60 62 63 62 62 62 62 64 64 65 66 66 65 64 65 64 63 61 62 62 63 60 59 60 59 59 59 58 56 56 54 53 54 53
73 74 74 74 74 75 75 74 72 71 71 72 72 73 73 72 74 73 72 72 73 72 72 72 71 71 71 72 72 71 71 71 72 66 72 62 65 67 65 64 65 66 64 63 70 68 66 63 63 63 62 62 63 63 62 63 63 63 64 65 65 65 65 62 63 64 63 63 62 64 61 60 60 60 58 58 58 57 59 58 58 56 56 54 52
71 70 70 70 70 70 71 70 71 71 71 72 73 73 70 61 67 72 73 67 62 56 55 68 70 69 69 71 74 74 73 73 62 58 57 57 57 58 59 59 60 63 62 60 64 66 64 63 63 62 62 63 63 62 63 63 64 64 64 62 66 66 64 62 63 62 62 62 63 60 60 60 58 57 57 56 57 57 58 56 58 57 55 52 52
68 68 68 68 68 69 69 70 70 70 69 68 68 66 64 66 57 52 57 55 52 47 46 46 47 49 60 64 65 59 57 55 54 54 52 52 54 54 55 56 56 57 58 61 65 65 64 63 62 62 63 63 63 62 62 63 63 63 63 63 65 64 62 62 62 61 61 61 60 60 59 58 57 57 56 56 56 56 56 57 55 56 54 51 49
67 67 67 68 68 68 68 69 68 66 66 68 68 67 65 66 69 62 54 56 53 48 47 47 46 46 47 51 55 63 58 53 51 51 52 52 52 52 53 53 54 54 53 57 64 64 64 64 62 62 63 63 62 62 63 63 63 64 64 63 63 62 63 64 64 61 60 59 59 59 59 58 57 56 56 56 54 54 55 56 53 52 52 50 49
68 67 67 67 67 67 66 68 68 68 67 67 66 66 63 61 61 61 73 51 48 51 50 46 44 45 45 45 44 45 46 46 46 46 47 49 50 51 51 52 52 52 53 60 65 64 64 64 63 63 63 63 62 62 63 63 63 63 63 62 62 62 63 64 63 60 60 59 59 58 57 56 56 56 55 55 55 53 53 53 50 50 51 49 48
67 67 67 67 66 67 67 68 68 67 67 67 67 66 65 65 63 64 64 63 71 58 45 49 51 50 50 49 48 47 46 46 45 44 44 45 47 49 51 55 51 51 55 63 65 64 63 62 62 63 63 63 63 63 63 63 64 63 63 64 64 63 63 65 64 61 60 59 58 57 56 55 55 56 55 54 52 51 49 46 48 50 50 49 49
67 67 67 66 66 66 67 67 66 67 67 67 66 64 64 66 66 65 64 64 64 64 63 64 58 54 58 54 50 47 46 45 45 44 44 44 44 47 49 57 55 53 56 64 64 64 63 62 62 63 63 63 63 63 63 63 63 63 63 62 62 61 62 63 62 60 59 58 57 56 56 56 56 55 55 53 51 50 47 48 49 50 49 50 48
66 66 66 65 65 66 66 66 66 66 66 66 66 64 64 64 64 64 63 64 64 63 63 63 63 57 53 50 49 47 47 46 45 43 43 43 43 45 53 58 58 56 59 63 63 63 63 63 63 63 63 63 63 64 64 64 64 64 63 62 61 61 62 63 62 61 60 57 56 56 55 56 55 54 53 50 52 50 47 49 49 48 49 48 49
65 65 64 66 66 66 66 66 67 66 65 64 65 65 64 64 63 62 63 63 62 62 62 63 62 62 59 62 59 55 51 47 45 43 43 42 42 48 54 59 60 59 62 62 62 62 62 63 63 63 63 64 64 65 65 65 65 65 61 64 63 63 63 62 61 60 59 57 56 57 57 56 55 54 51 49 48 48 47 49 50 48 49 46 45
66 66 66 67 67 67 67 67 66 65 66 65 66 65 64 64 65 64 62 62 61 62 62 62 59 61 61 61 60 62 62 57 50 47 49 45 47 52 57 60 62 62 62 62 62 62 62 63 63 63 64 64 65 65 65 64 65 64 64 64 64 63 60 61 60 62 61 58 56 57 57 57 55 53 52 49 47 48 48 50 48 47 46 43 43
66 63 62 63 63 65 65 65 65 65 65 64 65 65 64 63 64 63 63 62 62 61 61 61 61 60 60 61 61 61 61 64 64 63 63 61 56 61 62 62 62 62 62 61 62 62 62 62 63 63 64 65 64 65 64 64 64 64 64 64 63 62 61 60 61 61 58 57 57 57 57 55 53 52 53 50 49 49 49 49 47 46 43 42 40
62 61 63 62 62 62 62 64 63 64 64 64 64 63 64 63 64 63 62 61 61 61 61 61 60 61 61 60 59 59 61 62 62 62 62 62 62 62 62 62 62 61 61 62 63 63 63 64 64 64 65 65 65 65 64 64 64 64 63 62 62 61 60 60 60 60 58 57 57 56 55 54 51 53 52 48 47 49 49 48 47 45 41 41 42
61 61 62 61 61 63 62 61 62 64 64 63 63 63 63 63 64 63 62 61 61 61 61 61 61 62 60 55 50 51 60 62 63 62 61 61 62 62 62 62 62 62 62 62 63 64 64 64 64 64 64 65 64 64 64 64 63 63 62 61 60 60 60 59 60 59 58 57 56 55 55 54 53 51 49 49 48 48 48 47 44 41 42 42 40
61 61 61 60 61 62 61 60 61 63 64 64 64 63 62 62 62 62 62 61 61 61 61 61 61 62 57 50 50 49 59 61 61 61 61 61 61 61 61 62 62 62 63 64 64 64 64 63 63 64 64 64 63 63 63 62 62 61 60 59 59 58 57 57 57 58 57 56 55 54 55 52 49 49 50 48 49 47 46 42 40 41 40 40 40
63 62 62 63 62 62 61 61 61 61 62 62 62 63 62 61 62 63 62 61 60 60 60 61 61 62 61 55 56 54 61 61 60 60 60 60 61 61 61 61 62 62 63 63 64 63 63 63 63 63 63 63 62 62 61 61 60 59 59 58 58 56 56 56 57 57 56 54 53 51 52 49 49 49 50 49 46 44 42 42 41 40 41 41 42
62 62 62 62 63 61 61 60 60 61 60 60 61 61 60 62 61 61 62 62 61 61 61 61 61 62 62 61 61 62 61 61 60 60 60 60 61 61 61 62 62 62 62 62 63 63 63 63 63 63 62 63 62 62 61 60 59 58 58 57 56 56 55 55 55 55 53 52 52 51 51 50 50 49 48 45 45 44 42 43 42 41 41 41 40
62 62 61 61 63 62 62 63 61 61 60 60 61 61 59 59 60 60 60 60 61 61 60 60 60 61 60 62 62 62 61 60 60 60 59 60 60 61 62 61 62 62 62 62 63 63 63 63 62 61 61 60 60 59 58 58 58 57 55 54 53 51 51 51 52 51 50 51 49 50 49 50 49 47 45 45 45 45 43 44 43 45 41 41 41
61 61 60 61 60 60 60 60 61 61 61 60 61 60 58 58 57 59 60 59 60 60 60 60 60 60 60 60 61 61 60 60 59 59 59 59 60 61 62 61 61 61 61 60 61 61 60 60 60 59 58 58 57 56 56 56 54 53 53 52 51 50 50 50 50 50 50 50 49 48 48 47 47 45 46 46 44 44 45 44 45 43 42 41 39
60 59 58 59 58 58 59 60 59 59 60 59 60 59 59 60 60 60 60 60 59 59 58 60 61 59 60 60 60 61 60 59 59 59 59 59 60 60 59 59 59 59 59 59 60 59 59 58 58 57 56 56 56 56 53 52 51 50 52 50 52 49 49 49 48 49 48 48 48 46 46 45 45 47 45 46 47 45 45 44 43 44 42 40 39
57 58 58 57 57 57 57 57 58 58 58 58 58 58 58 58 59 59 59 60 61 61 60 61 59 59 60 60 59 60 59 60 60 62 62 61 64 65 62 60 59 59 59 59 58 58 57 57 57 57 57 57 55 54 53 52 52 50 50 50 50 53 55 49 53 50 51 50 49 49 48 47 46 46 45 46 46 44 43 42 42 40 41 40 40
56 56 56 57 56 56 56 56 56 56 56 57 57 57 57 57 57 57 57 57 57 58 60 61 59 60 63 61 62 60 61 61 61 60 59 59 60 60 59 59 60 59 58 58 58 58 58 57 56 56 56 55 54 52 51 51 49 49 50 51 51 44 42 44 46 50 49 51 50 49 49 48 48 47 47 46 45 44 42 43 41 40 39 39 39
53 53 53 54 54 54 55 55 56 55 56 56 56 56 56 56 56 56 56 57 57 57 57 58 58 58 59 62 60 62 62 62 61 59 58 58 59 59 59 59 60 60 59 58 58 57 56 56 56 55 54 53 52 51 49 49 49 47 49 53 40 39 39 40 40 41 45 46 46 47 46 47 47 45 45 45 44 43 42 41 41 41 39 39 39
51 51 51 50 51 51 52 53 54 54 54 54 54 54 54 54 54 55 55 55 55 55 56 56 56 58 61 60 61 59 57 58 57 58 59 61 58 59 58 58 59 60 60 59 57 56 56 55 54 53 52 51 50 49 49 48 48 50 46 40 38 39 39 41 47 39 40 39 45 42 42 44 45 44 43 41 41 41 41 42 40 40 40 36 37